Regional Weather Roundup
Issued by NWS

Home | Current Version | Previous Version | Text Only | Print | Product List | Glossary On
Versions: 1 2 3 4 5 6 7 8 9 10 11 12 13 14 15 16 17 18 19 20 21 22 23 24 25 26 27 28 29 30 31 32 33 34 35 36 37 38 39 40 41 42 43 44 45 46 47 48 49 50
000
ASCA44 KEWX 282220
RWRMX

LATIN AMERICA AND CARIBBEAN REGIONAL WEATHER ROUNDUP
NATIONAL WEATHER SERVICE AUSTIN/SAN ANTONIO TX
400 PM CST WED JAN 28 2015

NOTE: "FAIR" INDICATED FEW OR NO CLOUDS BELOW 12,000 FEET WITH NO
SIGNIFICANT WEATHER AND/OR OBSTRUCTIONS TO VISIBILITY.

BAJA CALIFORNIA

CITY           SKY/WX    TMP DP  RH WIND       PRES   REMARKS
LORETO         PTSUNNY   75  61  60 N12       29.95F
LA PAZ         MOSUNNY   75  61  60 N12       29.99
MEXICALI       CLOUDY    70  50  49 NW7       30.11
S.J. DEL CABO  PTSUNNY   86  54  32 NW14      29.92F
TIJUANA        CLOUDY    75  39  27 S5        30.08S

NORTHWESTERN MEXICO

CITY           SKY/WX    TMP DP  RH WIND       PRES   REMARKS
CULIACAN       PTSUNNY   90  66  45 W12       29.87  HX  92
DURANGO        CLOUDY    77  30  18 E3        30.19F
GUAYMAS        MOSUNNY   81  64  57 S12       29.91
HERMOSILLO     MOSUNNY   88  54  31 CALM      29.99
CD. JUAREZ     PTSUNNY   73  46  38 CALM      30.07
LOS MOCHIS     PTSUNNY   77  61  57 NW17      29.91F
OBREGON        PTSUNNY   82  59  44 W8        29.89

NORTHEASTERN MEXICO

CITY           SKY/WX    TMP DP  RH WIND       PRES   REMARKS
CHIHUAHUA      MOSUNNY   75  43  31 E15       30.12
MATAMOROS      PTSUNNY   73  64  73 SE12      30.17
MONCLOVA       MOSUNNY   82  41  23 CALM      30.03F
MONTERREY      PTSUNNY   77  43  29 E7        30.08F
NUEVO LAREDO   MOSUNNY   82  41  23 S12       30.07
PIEDRAS NEGRAS MOSUNNY   82  46  28 SE14      30.06F
REYNOSA        MOSUNNY   77  41  27 SE14      30.10
SALTILLO       PTSUNNY   66  46  48 NE7       30.20F
TORREON        PTSUNNY   77  41  27 N5        30.11F
CD. VICTORIA   MOSUNNY   79  43  27 SE10      30.09

WESTERN MEXICO

CITY           SKY/WX    TMP DP  RH WIND       PRES   REMARKS
AGUASCALIENTES CLOUDY    75  25  15 NW3       30.22
COLIMA         MOSUNNY   84  63  48 W12       29.93
DEL BAJIO      PTSUNNY   81  34  18 CALM      30.24F
GUADALAJARA    PTSUNNY   81  34  18 W6        30.13
MANZANILLO     PTSUNNY   82  73  74 SW9       29.80F
MAZATLAN       MOSUNNY   82  66  57 S10       29.84F
P. VALLARTA    MOSUNNY   82  72  69 SW7       29.84F
URUAPAN        SUNNY     77  54  44 S12       30.11F
ZACATECAS      PTSUNNY   75  34  22 NE10      30.25F

CENTRAL MEXICO

CITY           SKY/WX    TMP DP  RH WIND       PRES   REMARKS
CUERNAVACA     SUNNY     82  34  17 S6        30.05F
MEXICO CITY    SUNNY     73  32  21 N7G18     30.25F
MORELIA        MOSUNNY   79  39  24 N5        30.16
POZA RICA      SUNNY     79  57  47 SE9       30.14F
PUEBLA         SUNNY     77  30  18 NE10      30.24F
QUERETARO      MOSUNNY   75  36  23 NE12      30.25F
S. LUIS POTOSI MOSUNNY   73  30  20 NE9       30.24F
TAMPICO        MOSUNNY   73  57  56 SE10      30.13S
TOLUCA         MOSUNNY   72  19  14 NE18      30.31F

SOUTHERN MEXICO

CITY           SKY/WX    TMP DP  RH WIND       PRES   REMARKS
ACAPULCO       SUNNY     84  73  70 W12       29.80F HX  91
B. DE HUATULCO MOSUNNY   84  75  74 CALM      29.86  HX  92
OAXACA         SUNNY     79  27  14 SW6       30.12
P. ESCONDIDO   MOSUNNY   82  73  74 S12       30.03S
VERACRUZ       MOSUNNY   73  54  49 SE10      30.11F
ZIHUATANEJO    SUNNY     86  73  66 W7        29.81F HX  93

YUCATAN PENINSULA

CITY           SKY/WX    TMP DP  RH WIND       PRES   REMARKS
CAMPECHE       MOSUNNY   73  63  68 NW12G23   30.06S
CANCUN         MOSUNNY   77  61  57 NE7       30.09S
CHETUMAL       MOSUNNY   79  73  83 NW5       30.05S
CD. DEL CARMEN SUNNY     73  55  53 NE7       30.10
COZUMEL        MOSUNNY   75  63  64 NE12      30.08S
MERIDA         MOSUNNY   81  55  41 NE7       30.08S
MINATITLAN     MOSUNNY   73  64  73 N12G23    30.07
TAPACHULA      MOSUNNY   82  73  74 SW17      29.84F
TUX. GUTIERREZ SUNNY     73  52  46 NW21      29.99F
VILLAHERMOSA   MOSUNNY   77  57  50 E9        30.10F

CENTRAL AMERICA

CITY           SKY/WX    TMP DP  RH WIND       PRES   REMARKS
BELIZE CITY    PTSUNNY   79  64  61 NE6       30.06S
MANAGUA        PTCLDY    88  55  33 NE18      29.80S

CARIBBEAN

CITY           SKY/WX    TMP DP  RH WIND       PRES   REMARKS
ARUBA          PTCLDY    82  70  65 E20       29.83R
CURACAO          N/A     82  66  57 SE16      29.86S
KINGSTON       MOSUNNY   82  72  69 N17       29.92S
NASSAU         PTCLDY    68  50  52 N10       30.07R
SAN JUAN       PTCLDY    82  66  57 SE7       29.95R
SANTO DOMINGO  PTCLDY    81  70  69 CALM      29.94R
ST. KITTS      PTCLDY    79  72  78 E6        29.97R
ST. MAARTEN    PTCLDY    79  70  73 E9        29.97R

$$



USA.gov is the U.S. government's official web portal to all federal, state and local government web resources and services.